Regional Weather Roundup
Issued by NWS

Home | Current Version | Previous Version | Text Only | Print | Product List | Glossary On
Versions: 1 2 3 4 5 6 7 8 9 10 11 12 13 14 15 16 17 18 19 20 21 22 23 24 25 26 27 28 29 30 31 32 33 34 35 36 37 38 39 40 41 42 43 44 45 46 47 48 49 50
000
ASCA44 KEWX 240320
RWRMX

LATIN AMERICA AND CARIBBEAN REGIONAL WEATHER ROUNDUP
NATIONAL WEATHER SERVICE AUSTIN/SAN ANTONIO TX
1000 PM CDT SAT JUL 23 2016

NOTE: "FAIR" INDICATED FEW OR NO CLOUDS BELOW 12,000 FEET WITH NO
SIGNIFICANT WEATHER AND/OR OBSTRUCTIONS TO VISIBILITY.

BAJA CALIFORNIA

CITY           SKY/WX    TMP DP  RH WIND       PRES   REMARKS
LA PAZ         MOCLDY    86  72  62 NW9       29.87R HX  92
MEXICALI       PTCLDY    95  61  31 SE14      29.66S HX  95
S.J. DEL CABO  PTCLDY    81  72  74 SE5       29.91R
TIJUANA        PTCLDY    79  59  50 N7        29.84S

NORTHWESTERN MEXICO

CITY           SKY/WX    TMP DP  RH WIND       PRES   REMARKS
CULIACAN       CLOUDY   102  75  42 SW7       29.87R HX 116
DURANGO        MOCLDY    68  55  64 S6        30.20R
GUAYMAS          N/A    N/A N/A N/A MISG        N/A
HERMOSILLO     PTCLDY    93  73  52 S12       29.82R HX 102
CD. JUAREZ     PTCLDY    93  45  18 CALM      29.88R
LOS MOCHIS     CLOUDY    86  72  62 SW8       29.88R HX  92

NORTHEASTERN MEXICO

CITY           SKY/WX    TMP DP  RH WIND       PRES   REMARKS
CHIHUAHUA      PTCLDY    88  45  22 E7        30.00R
MONCLOVA         N/A    N/A N/A N/A MISG        N/A
MONTERREY      CLEAR     90  64  43 E12       29.86R HX  91
REYNOSA          N/A    N/A N/A N/A MISG        N/A
SALTILLO         N/A    N/A N/A N/A MISG        N/A
TORREON        PTCLDY    93  54  26 NE10      29.96R HX  91
CD. VICTORIA     N/A    N/A N/A N/A MISG        N/A

WESTERN MEXICO

CITY           SKY/WX    TMP DP  RH WIND       PRES   REMARKS
AGUASCALIENTES TSTM      59  55  88 E14       30.31R
COLIMA           N/A    N/A N/A N/A MISG        N/A
DEL BAJIO      LGT RAIN  63  59  88 N3        30.32R
GUADALAJARA    MOCLDY    68  61  77 CALM      30.19R
MAZATLAN       MOCLDY    82  75  78 NW5       29.90R
P. VALLARTA    CLOUDY    81  79  94 CALM      29.89R
URUAPAN        MOCLDY    64  63  94 CALM      30.18R
ZACATECAS      CLEAR     66  50  55 S7        30.28R

CENTRAL MEXICO

CITY           SKY/WX    TMP DP  RH WIND       PRES   REMARKS
CUERNAVACA       N/A    N/A N/A N/A MISG        N/A
MEXICO CITY    MOCLDY    64  48  55 CALM      30.34R
MORELIA        MOCLDY    63  59  88 CALM      30.26R
POZA RICA        N/A    N/A N/A N/A MISG        N/A
QUERETARO      MOCLDY    59  57  94 E7        30.34R
S. LUIS POTOSI PTCLDY    66  55  68 SE14      30.25R
TAMPICO        CLEAR     82  75  78 SE12      29.94R
TOLUCA         MOCLDY    59  52  77 S7        30.42R

SOUTHERN MEXICO

CITY           SKY/WX    TMP DP  RH WIND       PRES   REMARKS
ACAPULCO       CLEAR     82  75  78 W5        29.87R
B. DE HUATULCO   N/A    N/A N/A N/A MISG        N/A
P. ESCONDIDO     N/A    N/A N/A N/A MISG        N/A
VERACRUZ       CLEAR     81  77  89 NE3       29.95R
ZIHUATANEJO      N/A    N/A N/A N/A MISG        N/A

YUCATAN PENINSULA

CITY           SKY/WX    TMP DP  RH WIND       PRES   REMARKS
CAMPECHE         N/A    N/A N/A N/A MISG        N/A
CANCUN         PTCLDY    84  79  84 E7        30.01S HX  96
CHETUMAL         N/A    N/A N/A N/A MISG        N/A
CD. DEL CARMEN   N/A    N/A N/A N/A MISG        N/A
COZUMEL        PTCLDY    77  75  94 CALM      30.01R
MERIDA         MOCLDY    75  73  94 CALM      29.99S
MINATITLAN       N/A    N/A N/A N/A MISG        N/A
TAPACHULA      PTCLDY    81  73  78 CALM      29.85R
TUX. GUTIERREZ PTCLDY    73  70  88 CALM      29.95R
VILLAHERMOSA   PTCLDY    81  75  83 NE5       29.94R

CENTRAL AMERICA

CITY           SKY/WX    TMP DP  RH WIND       PRES   REMARKS
MANAGUA        PTCLDY    81  72  74 SE5       29.89S

CARIBBEAN

CITY           SKY/WX    TMP DP  RH WIND       PRES   REMARKS
ARUBA          PTCLDY    82  75  78 E17       29.92R
CURACAO        PTCLDY    82  75  78 E13       29.94S
KINGSTON       PTCLDY    86  79  79 SE14      29.94S HX  99
NASSAU         PTCLDY    81  77  89 CALM      30.07R
SAN JUAN       PTCLDY    81  75  83 E8        30.03R
SANTO DOMINGO  PTCLDY    77  73  88 CALM      30.00R
ST. CROIX      PTCLDY    81  73  78 NE10      30.03R

$$





USA.gov is the U.S. government's official web portal to all federal, state and local government web resources and services.